Tracking 27122 objects as of 26-Mar-2023
HD Live streaming from Space Station
objects crossing your sky now

LEMUR 2 JINDRA

Track LEMUR 2 JINDRA now!
10-day predictions
LEMUR 2 JINDRA is classified as:


NORAD ID: 46909
Int'l Code: 2020-081E
Perigee: 539.2 km
Apogee: 551.4 km
Inclination: 36.9 °
Period: 95.4 minutes
Semi major axis: 6916 km
RCS: Unknown
Launch date: November 7, 2020
Source: United States (US)
Launch site: SRIHARIKOTA (SRI)
Your satellite tracking list
Your tracking list is empty




NASA's NSSDC Master Catalog

Two Line Element Set (TLE):
1 46909U 20081E   23084.99336669  .00039620  00000-0  24215-2 0  9993
2 46909  36.9010 343.6905 0008854 255.4278 104.5988 15.09352633130610
Source of the keplerian elements: AFSPC